Simultaneous Nadir Overpasses (SNOs) Predictions

Prediction of SNOs between LANDSAT-8 and METOP-A Satellite Orbit:

Table of predicted SNOs for the next 14.0 days since TLE Epoch: 9/24/2016
Index Date (LANDSAT-8) Time (LANDSAT-8) Lat,Lon (LANDSAT-8) SZA (LANDSAT-8 ) Date (METOP-A) Time (METOP-A) Lat,Lon (METOP-A) SZA (METOP-A ) Distance(km) Time Diff (sec)
1 09/26/2016 12:28:18 -81.12,-147.11 95.09 09/26/2016 12:27:37 -81.12,-147.24 95.12 2.23 41
2 09/26/2016 13:17:44 81.13, 20.62 84.94 09/26/2016 13:18:17 81.13, 20.46 84.94 2.76 33
3 09/29/2016 08:02:33 -81.12, -80.66 93.97 09/29/2016 08:02:00 -81.12, -80.80 94.00 2.40 33
4 09/29/2016 08:51:58 81.15, 87.41 86.11 09/29/2016 08:52:39 81.14, 87.27 86.11 2.60 41
5 10/02/2016 03:36:47 -81.12, -14.24 92.87 10/02/2016 03:36:22 -81.12, -14.37 92.89 2.15 25
6
